Home > Weather > Ludwigsfelde > Past weeks

Flag for Germany Past Weather in Ludwigsfelde, Brandenburg, Germany — Yesterday and Last 2 Weeks

Now
64 °F

Clear.


Feels Like: 64 °F
Forecast: 59 / 72 °F
Wind: 3 mph from East

Location: Berlin-Schoenefeld

Current Time: Aug 28, 2016 at 4:26:11 AM

Latest Report: Aug 28, 2016 at 3:50 AM


Visibility: 10 mi

Pressure: 30.01 "Hg

Humidity: 88%

Dew Point: 61 °F

Location of LudwigsfeldeLocation

Past Weather in Ludwigsfelde — Graph

°F

Ludwigsfelde Temperature Yesterday

Maximum temperature yesterday: 88 °F (at 2:20 PM)
Minimum temperature yesterday: 59 °F (at 4:50 AM)
Average temperature yesterday: 74 °F

High & Low Weather Summary for the Past Weeks

 TemperatureHumidityPressure
High91 °F (Aug 26, 2:50 PM)100% (Aug 16, 10:20 PM)30.33 "Hg (Aug 16, 10:20 PM)
Low45 °F (Aug 17, 6:20 AM)17% (Aug 26, 4:50 PM)29.80 "Hg (Aug 18, 4:20 PM)
Average66 °F67%30.08 "Hg
* Reported Aug 13 3:20 AM — Aug 28 3:20 AM, Ludwigsfelde, Weather by CustomWeather, © 2016

Note: Actual official high and low records may vary slightly from our data, if they occured in-between our weather recording intervals... More about our weather records

Advertising

Ludwigsfelde Weather History for the Previous 24 Hours

Scroll right to see more
 ConditionsComfort  
Time TempWeatherWind HumidityBarometerVisibility
3:20 AM
Sun, Aug 28
64 °FClear.3 mph88%30.01 "Hg10 mi
2:50 AM66 °FClear.3 mph83%30.01 "Hg10 mi
2:20 AM66 °FClear.2 mph83%30.01 "Hg10 mi
1:50 AM68 °FClear.6 mph78%30.01 "Hg10 mi
1:20 AM68 °FClear.7 mph83%30.04 "Hg10 mi
12:50 AM70 °FClear.8 mph73%30.04 "Hg10 mi
12:20 AM70 °FClear.8 mph73%30.04 "Hg10 mi
11:50 PM
Sat, Aug 27
72 °FClear.9 mph69%30.07 "Hg10 mi
11:20 PM73 °FClear.10 mph65%30.07 "Hg10 mi
10:50 PM73 °FClear.10 mph69%30.07 "Hg10 mi
10:20 PM73 °FClear.8 mph69%30.07 "Hg10 mi
9:50 PM73 °FClear.9 mph69%30.07 "Hg10 mi
9:20 PM75 °FClear.8 mph65%30.07 "Hg10 mi
8:50 PM77 °FSunny.8 mph61%30.07 "Hg10 mi
8:20 PM77 °FSunny.9 mph57%30.07 "Hg10 mi
7:50 PM81 °FSunny.8 mph48%30.04 "Hg10 mi
7:20 PM82 °FSunny.8 mph42%30.04 "Hg10 mi
6:50 PM84 °FSunny.10 mph40%30.04 "Hg10 mi
6:20 PM86 °FSunny.9 mph35%30.04 "Hg10 mi
5:50 PM88 °FSunny.10 mph33%30.07 "Hg10 mi
5:20 PM88 °FSunny.12 mph33%30.07 "Hg10 mi
4:50 PM88 °FPassing clouds.9 mph35%30.07 "HgN/A
4:20 PM88 °FPassing clouds.7 mph35%30.07 "HgN/A
3:50 PM88 °FPassing clouds.7 mph35%30.07 "HgN/A
3:20 PM88 °FPassing clouds.7 mph35%30.09 "HgN/A
2:50 PM86 °FPassing clouds.7 mph38%30.09 "HgN/A
2:20 PM88 °FSunny.3 mph38%30.09 "Hg10 mi
1:50 PM86 °FSunny.6 mph40%30.09 "Hg10 mi
1:20 PM84 °FSunny.6 mph43%30.09 "Hg10 mi
12:50 PM82 °FSunny.5 mph45%30.09 "Hg10 mi
12:20 PM82 °FPassing clouds.6 mph42%30.09 "HgN/A
11:50 AM81 °FSunny.6 mph48%30.12 "Hg10 mi
11:20 AM79 °FPassing clouds.7 mph51%30.12 "HgN/A
10:50 AM77 °FPassing clouds.7 mph54%30.12 "HgN/A
10:20 AM75 °FPassing clouds.6 mph54%30.12 "HgN/A
9:50 AM73 °FPassing clouds.7 mph61%30.12 "HgN/A
9:20 AM72 °FPassing clouds.8 mph61%30.12 "HgN/A
8:50 AM70 °FPassing clouds.7 mph60%30.09 "HgN/A
8:20 AM68 °FPassing clouds.5 mph69%30.09 "HgN/A
7:50 AM66 °FSunny.2 mph78%30.09 "Hg10 mi
7:20 AM63 °FSunny.3 mph83%30.09 "Hg10 mi
6:50 AM59 °FClear.3 mph88%30.09 "Hg10 mi
6:20 AM61 °FClear.2 mph83%30.07 "Hg10 mi
5:50 AM59 °FClear.2 mph88%30.07 "Hg10 mi
5:20 AM61 °FClear.2 mph83%30.07 "Hg10 mi
4:50 AM59 °FClear.3 mph88%30.07 "Hg10 mi
4:20 AM61 °FClear.3 mph83%30.07 "Hg10 mi
Weather by CustomWeather, © 2016

See weather overviewHow to use our weather pages